Weather Roundup
Issued by NWS

Home | Current Version | Previous Version | Graphics & Text | Print | Product List | Glossary Off
Versions: 1 2 3 4 5 6 7 8 9 10 11 12 13 14 15 16 17 18 19 20 21 22 23 24 25 26 27 28 29 30 31 32 33 34 35 36 37 38 39 40 41 42 43 44 45 46 47 48 49 50

000
NZUS93 KARX 041759
HRRWXR

CURRENT HOURLY OBSERVATIONS ACROSS
MUCH OF THE UPPER MISSISSIPPI VALLEY
NATIONAL WEATHER SERVICE LA CROSSE WI
100 PM CDT TUE AUG 04 2015


...SOUTHEAST MINNESOTA...


CITY           SKY/WX    TMP DP  RH WIND       PRES   REMARKS
ROCHESTER      PTSUNNY   73  56  54 VRB3      30.04F
ROCHESTER/MAYO FAIR      74  49  40 NW9       30.03F
WINONA         MOSUNNY   77  52  41 N3        30.01S
AUSTIN         PTSUNNY   75  46  35 CALM      30.03F
ALBERT LEA     PTSUNNY   73  48  40 N3        30.03F
DODGE CENTER   PTSUNNY   73  52  46 SW7       30.04F
PRESTON        PTSUNNY   72  52  49 W8        30.04F
OWATONNA       PTSUNNY   75  50  41 SW5       30.03F
FARIBAULT      PTSUNNY   75  55  50 W5        30.03F
$$

...ELSEWHERE IN MINNESOTA...


CITY           SKY/WX    TMP DP  RH WIND       PRES   REMARKS
MINNEAPOLIS    MOSUNNY   78  49  35 NW10G18   30.00S
INTNL FALLS    PTSUNNY   61  49  64 NE6       30.03S
DULUTH         PTSUNNY   70  52  52 NW9       29.98F
RED WING       MOSUNNY   81  48  32 W12G17    29.99S
REDWOOD FALLS  MOSUNNY   79  44  28 S10       30.00F
MANKATO        PTSUNNY   75  48  38 S3        30.02F
WORTHINGTON    CLOUDY    73  55  53 S12       30.02F
FAIRMONT       CLOUDY    73  48  40 SE5       30.02F
$$

...SOUTHWEST WISCONSIN...


CITY           SKY/WX    TMP DP  RH WIND       PRES   REMARKS
LA CROSSE      MOSUNNY   79  51  37 NW8       30.00S
PRAIRIE DU CHI CLOUDY    75  51  43 SW7       30.01F
BOSCOBEL       PTSUNNY   82  52  35 NW9       30.01S
LONE ROCK      NOT AVBL
PLATTEVILLE    PTSUNNY   74  55  50 NW10      30.02S
FORT MC COY    MOSUNNY   76  47  35 NW9G17    30.01S
VIROQUA        FAIR      73  51  45 W9        30.04R
WIS DELLS      PTSUNNY   76  46  34 W14G23    30.00S
$$

...ELSEWHERE IN WISCONSIN...


CITY           SKY/WX    TMP DP  RH WIND       PRES   REMARKS
MILWAUKEE      PTSUNNY   78  52  40 NW16G24   29.96S
MADISON        PTSUNNY   76  51  41 NW14      29.99S
GREEN BAY      PTSUNNY   75  56  51 NW10      29.94S
EAU CLAIRE     NOT AVBL
BLACK RVR FLS  FAIR      78  48  34 W13G18    29.99F
MEDFORD        CLOUDY    70  52  52 W9G17     29.99S
WAUSAU         PTSUNNY   73  49  42 NW12G24   29.96R
WIS RAPIDS     PTSUNNY   75  48  38 NW12      29.99F
MARSHFIELD     CLOUDY    72  49  44 NW10      29.99S
RICE LAKE      SUNNY     73  50  43 W8        30.00F
$$

...NORTHEAST IOWA...


CITY           SKY/WX    TMP DP  RH WIND       PRES   REMARKS
DECORAH        CLOUDY    73  54  49 CALM      30.03F
MASON CITY     CLOUDY    76  53  44 E6        30.05F
CHARLES CITY   PTSUNNY   73  57  56 VRB3      30.05F
OELWEIN        PTSUNNY   73  57  56 NW7       30.04F
$$

...ELSEWHERE IN IOWA...


CITY           SKY/WX    TMP DP  RH WIND       PRES   REMARKS
DES MOINES     CLOUDY    75  58  55 CALM      30.03F
IOWA CITY      CLOUDY    79  62  56 W9        30.04S
FORT DODGE     CLOUDY    75  59  57 S5        30.04F
$$

...NORTHERN ILLINOIS...


CITY           SKY/WX    TMP DP  RH WIND       PRES   REMARKS
CHICAGO-OHARE  PTSUNNY   79  52  38 W12       29.97S
CHICAGO-MIDWAY PTSUNNY   81  52  36 VRB5      29.96F
MOLINE         CLOUDY    81  58  45 W14       30.01S
ROCKFORD       CLOUDY    79  54  41 NW14      30.00S
PEORIA         CLOUDY    82  57  42 NW7       30.03R
$$

NOTE: "FAIR" INDICATES FEW OR NO CLOUDS BELOW 12,000 FEET WITH NO
SIGNIFICANT WEATHER AND/OR OBSTRUCTIONS TO VISIBILITY. WIND
SPEEDS ARE IN MILES-PER-HOUR.



USA.gov is the U.S. government's official web portal to all federal, state and local government web resources and services.